NWS Melbourne » East Central Florida Hourly Weather Roundup

 

ASUS42 KMLB 241611
RWRMLB
HOURLY WEATHER ROUNDUP AROUND FLORIDA
NATIONAL WEATHER SERVICE OFFICE MELBOURNE FL
1200 PM EDT SUN JUL 24 2016
  
CITY           SKY/WX    TMP DP  RH WIND       PRES   REMARKS
MELBOURNE      MOSUNNY   88  74  63 E10       30.06S                  
FORT PIERCE    SUNNY     88  74  63 E10       30.07R                  
ORLANDO INTL   MOSUNNY   90  70  51 E8        30.06S                  
DAYTONA BEACH  MOSUNNY   91  72  53 E7        30.06F HX  98           
VERO BEACH     SUNNY     89  72  56 E10       30.07R                  
$$
...ELSEWHERE ACROSS CENTRAL FLORIDA...
  
CITY           SKY/WX    TMP DP  RH WIND       PRES   REMARKS
PATRICK AFB    SUNNY     87  76  69 N8        30.06S                  
KSC            MOSUNNY   90  73  58 E10       30.05F HX  98           
CAPE CANAVERAL SUNNY     89  73  57 E7        30.05S                  
TITUSVILLE     MOSUNNY   90  70  51 NE6       30.07S                  
ORLANDO EXEC   MOSUNNY   89  72  56 CALM      30.06S                  
LEESBURG       SUNNY     88  74  63 SE6       30.07S                  
THE VILLAGES     N/A     88  77  70 MISG      29.96S HX 100           
SANFORD        SUNNY     90  71  53 VRB5      30.06S                  
NEW SMYRNA BCH MOSUNNY   88  72  58 E9        30.08S                  
ORMOND BEACH   MOSUNNY   90  73  58 E7        30.06S HX  98           
WINTER HAVEN   MOSUNNY   88  71  57 MISG      30.07S                  
KISSIMMEE      MOSUNNY   89  73  59 SE9       30.07S                  
OKEECHOBEE     SUNNY     86  73  66 CALM      30.07S                  
TAMPA          MOSUNNY   84  74  71 SW8       30.06S                  
$$
...NORTHERN FLORIDA...
  
CITY           SKY/WX    TMP DP  RH WIND       PRES   REMARKS
PALM COAST     MOSUNNY   91  73  55 VRB6      30.05F HX 100           
ST AUGUSTINE   SUNNY     88  75  65 E9        30.07                   
OCALA          MOSUNNY   90  72  55 E6        30.06S                  
GAINESVILLE    PTSUNNY   91  74  57 VRB3      30.06S HX 100           
JACKSONVILLE   MOSUNNY   91  70  49 VRB3      30.05F                  
TALLAHASSEE    PTSUNNY   91  74  57 E9        30.05R HX 100           
$$
...ALONG THE SOUTHEAST COAST TO THE KEYS...
  
CITY           SKY/WX    TMP DP  RH WIND       PRES   REMARKS
STUART         MOSUNNY   90  75  62 E7        30.08R HX 100           
WEST PALM BCH  CLOUDY    85  73  67 E9        30.08R                  
MIAMI          CLOUDY    82  72  71 E15       30.09R                  
KEY WEST       CLOUDY    83  73  72 SE10      30.06S                  
$$
...MARINE REPORTS...
  
STATION/POSITION TIME  TEMP    WIND        PRES    WAVE   SWELL
                       AIR SEA DIR/SP/G            HT/PER HT/PER
                 (UTC) (F)     (DEG/KT/KT) (MB)    (FT/S) (FT/S)
ST AUGUSTINE FP  1600   83 85   80/  6/  6 1019.0S
20NM E CAPE CANA 1520   83 86   20/  4/  4 1018.6
120 E NEW SMYRNA 1550   84 87   60/  4/  6 1019.0R   3/ 8   3/ 8
TRIDENT PIER     1548   86 87   70/  7/ 11 1018.3S
SEBASTIAN INLET  1600   81 84              1019.0
4NM E PORT CANAV 1540      87                N/A     1/ 8
6NM NE FPR INLET 1551      86                N/A     1/ 9
SETTLEMENT PT GB 1600   79     130/ 16/ 19 1019.3R
$$
  
 

 

Link to: East Central Florida Hourly Weather Roundup


USA.gov is the U.S. government's official web portal to all federal, state and local government web resources and services.